CHINASAT 2C (ZX 2C)

Last updated on Sat Jun 29 2024 00:02:39 GMT+0000 (Coordinated Universal Time)

1 41021U 15063A 24180.56325488 -.00000322 00000+0 00000+0 0 9995 2 41021 0.0494 210.8048 0004703 236.6654 136.2271 1.00266248 31797
UTC large
Height (km)
Speed (km/s)
/
Latitude / Longitude
Inclination (degrees)
Orbital Period (minutes)
Azimuth
Elevation
Range (km)
Doppler Factor

Next 0 passes for location: London (51.5072 / 0.1276)

Sorry there are no passes over London.